Radioactive Concentration measured by Seawater Radiation Monitor near Fukushima Daiichi Nuclear Power Station
Date,Time,Cs137(Bq/L),Cs134(Bq/L),Total β(Bq/L)
2017/01/27,00:00,0.60,0.048,ND
2017/01/27,00:10,0.58,0.053,ND
2017/01/27,00:20,0.56,0.053,ND
2017/01/27,00:30,0.57,0.048,ND
2017/01/27,00:40,0.56,0.050,ND
2017/01/27,00:50,0.55,0.061,ND
2017/01/27,01:00,0.55,0.060,ND
2017/01/27,01:10,0.56,0.058,ND
2017/01/27,01:20,0.54,0.055,ND
2017/01/27,01:30,0.52,0.055,ND
2017/01/27,01:40,0.51,0.054,ND
2017/01/27,01:50,0.53,0.044,ND
2017/01/27,02:00,0.53,0.032,ND
2017/01/27,02:10,0.51,0.037,ND
2017/01/27,02:20,0.49,0.047,ND
2017/01/27,02:30,0.50,0.047,ND
2017/01/27,02:40,0.52,0.041,ND
2017/01/27,02:50,0.48,0.047,ND
2017/01/27,03:00,0.50,0.055,ND
2017/01/27,03:10,0.52,0.046,10
2017/01/27,03:20,0.55,0.034,11
2017/01/27,03:30,0.55,0.040,10
2017/01/27,03:40,0.55,0.046,12
2017/01/27,03:50,0.58,0.041,11
2017/01/27,04:00,0.56,0.037,9.5
2017/01/27,04:10,0.55,0.047,8.9
2017/01/27,04:20,0.54,0.042,ND
2017/01/27,04:30,0.52,0.041,ND
2017/01/27,04:40,0.52,0.035,ND
2017/01/27,04:50,0.50,0.036,9.0
2017/01/27,05:00,0.52,0.042,ND
2017/01/27,05:10,0.52,0.036,ND
2017/01/27,05:20,0.52,0.046,ND
2017/01/27,05:30,0.54,0.047,ND
2017/01/27,05:40,0.53,0.062,ND
2017/01/27,05:50,0.55,0.060,ND
2017/01/27,06:00,0.56,0.049,ND
2017/01/27,06:10,0.57,0.043,9.2
2017/01/27,06:20,0.56,0.044,9.3
2017/01/27,06:30,0.58,0.044,12
2017/01/27,06:40,0.59,0.038,10
2017/01/27,06:50,0.58,0.048,ND
2017/01/27,07:00,0.57,0.051,ND
2017/01/27,07:10,0.60,0.067,ND
2017/01/27,07:20,0.62,0.056,9.0
2017/01/27,07:30,0.60,0.057,8.8
2017/01/27,07:40,0.61,0.059,ND
2017/01/27,07:50,0.59,0.038,9.7
2017/01/27,08:00,0.60,0.035,11
2017/01/27,08:10,0.59,0.037,ND
2017/01/27,08:20,0.58,0.040,8.8
2017/01/27,08:30,0.58,0.045,11
2017/01/27,08:40,0.56,0.045,11
2017/01/27,08:50,0.57,0.043,12
2017/01/27,09:00,0.57,0.047,12
2017/01/27,09:10,0.56,0.043,16
2017/01/27,09:20,0.55,0.047,16
2017/01/27,09:30,0.55,0.049,15
2017/01/27,09:40,0.56,0.047,16
2017/01/27,09:50,0.57,0.043,16
2017/01/27,10:00,0.56,0.042,16
2017/01/27,10:10,0.56,0.044,16
2017/01/27,10:20,0.55,0.046,14
2017/01/27,10:30,0.56,0.064,12
2017/01/27,10:40,0.57,0.068,9.2
2017/01/27,10:50,0.57,0.066,ND
2017/01/27,11:00,0.57,0.062,ND
2017/01/27,11:10,0.57,0.048,ND
2017/01/27,11:20,0.57,0.046,ND
2017/01/27,11:30,0.59,0.038,ND
2017/01/27,11:40,0.59,0.042,ND
2017/01/27,11:50,0.58,0.038,ND
2017/01/27,12:00,0.57,0.047,ND
2017/01/27,12:10,0.56,0.045,ND
2017/01/27,12:20,0.55,0.051,ND
2017/01/27,12:30,0.55,0.044,ND
2017/01/27,12:40,0.55,0.039,ND
2017/01/27,12:50,0.55,0.043,ND
2017/01/27,13:00,0.56,0.041,ND
2017/01/27,13:10,0.55,0.043,ND
2017/01/27,13:20,0.58,0.033,9.3
2017/01/27,13:30,0.56,0.050,10
2017/01/27,13:40,0.56,0.041,11
2017/01/27,13:50,0.57,0.042,12
2017/01/27,14:00,0.58,0.041,13
2017/01/27,14:10,0.59,0.055,11
2017/01/27,14:20,0.59,0.059,11
2017/01/27,14:30,0.59,0.064,ND
2017/01/27,14:40,0.59,0.075,9.0
2017/01/27,14:50,0.60,0.069,8.9
2017/01/27,15:00,0.59,0.059,ND
2017/01/27,15:10,0.61,0.048,9.7
2017/01/27,15:20,0.60,0.053,9.3
2017/01/27,15:30,0.60,0.051,12
2017/01/27,15:40,0.61,0.053,9.9
2017/01/27,15:50,0.62,0.054,9.9
2017/01/27,16:00,0.63,0.052,12
2017/01/27,16:10,0.60,0.056,ND
2017/01/27,16:20,0.61,0.051,ND
2017/01/27,16:30,0.62,0.048,ND
2017/01/27,16:40,0.62,0.043,ND
2017/01/27,16:50,0.61,0.048,ND
2017/01/27,17:00,0.61,0.041,ND
2017/01/27,17:10,0.60,0.050,ND
2017/01/27,17:20,0.59,0.044,ND
2017/01/27,17:30,0.58,0.042,ND
2017/01/27,17:40,0.58,0.048,ND
2017/01/27,17:50,0.57,0.048,ND
2017/01/27,18:00,0.54,0.058,ND
2017/01/27,18:10,0.59,0.064,ND
2017/01/27,18:20,0.57,0.055,ND
2017/01/27,18:30,0.57,0.058,ND
2017/01/27,18:40,0.56,0.051,ND
2017/01/27,18:50,0.56,0.049,ND
2017/01/27,19:00,0.56,0.046,ND
2017/01/27,19:10,0.55,0.047,ND
2017/01/27,19:20,0.53,0.062,ND
2017/01/27,19:30,0.53,0.057,ND
2017/01/27,19:40,0.52,0.056,ND
2017/01/27,19:50,0.53,0.049,ND
2017/01/27,20:00,0.56,0.041,ND
2017/01/27,20:10,0.57,0.036,ND
2017/01/27,20:20,0.59,0.030,ND
2017/01/27,20:30,0.60,0.027,10
2017/01/27,20:40,0.62,0.025,9.3
2017/01/27,20:50,0.69,ND,8.8
2017/01/27,21:00,0.70,ND,ND
2017/01/27,21:10,0.65,0.031,ND
2017/01/27,21:20,0.68,0.031,ND
2017/01/27,21:30,0.68,0.026,ND
2017/01/27,21:40,0.68,0.032,ND
2017/01/27,21:50,0.63,0.046,ND
2017/01/27,22:00,0.62,0.054,ND
2017/01/27,22:10,0.63,0.060,ND
2017/01/27,22:20,0.62,0.056,ND
2017/01/27,22:30,0.60,0.071,ND
2017/01/27,22:40,0.62,0.067,ND
2017/01/27,22:50,0.64,0.068,ND
2017/01/27,23:00,0.63,0.063,ND
2017/01/27,23:10,0.65,0.059,ND
2017/01/27,23:20,0.66,0.068,ND
2017/01/27,23:30,0.69,0.058,ND
2017/01/27,23:40,0.71,0.052,ND
2017/01/27,23:50,0.71,0.056,ND
